Weather History for Elizabethton, TN

Change the Weather History Date:

Saturday, March 22, 2014

  Actual Average (KTRI) Record (KTRI)
Temperature  
Mean Temperature 50 °F 48 °F  
Max Temperature 66 °F 61 °F 81 °F (1938)
Min Temperature 33 °F 36 °F 16 °F (1986)
Degree Days  
Heating Degree Days 16 17  
Month to date heating degree days 430  
Since 1 July heating degree days 3812  
Cooling Degree Days 0 0  
Month to date cooling degree days 0  
Year to date cooling degree days 0  
Moisture  
Dew Point 33 °F    
Average Humidity 59    
Maximum Humidity 81    
Minimum Humidity 32    
Precipitation  
Precipitation 0.00 in 0.12 in 0.86 in (1968)
Month to date precipitation 2.42  
Year to date precipitation 9.24  
Snow  
Snow 0.00 in 0.00 in - ()
Month to date snowfall 1.1  
Since 1 July snowfall 11.9  
Snow Depth -    
Sea Level Pressure  
Sea Level Pressure 30.01 in    
Wind  
Wind Speed 1 mph (WSW)    
Max Wind Speed 13 mph    
Max Gust Speed 13 mph    
Visibility 10 miles    
Events      
T = Trace of Precipitation, MM = Missing Value Source: NWS Daily Summary

Daily Weather History Graph

Daily Weather History Graph

Search for Another Location

Airport:

Trip Planner

Search our weather history database for the weather conditions in past years. The results will help you decide how hot, cold, wet, or windy it might be!

Date:

Astronomy

Mar. 22, 2014 Rise Set
Actual Time 7:29 AM EDT 7:42 PM EDT
Civil Twilight 7:03 AM EDT 8:07 PM EDT
Nautical Twilight 6:33 AM EDT 8:38 PM EDT
Astronomical Twilight 6:03 AM EDT 9:08 PM EDT
Moon 12:52 AM EDT (3/22) 11:19 AM EDT (3/22)
Length of Visible Light 13h 04m
Length of Day
12h 12m
Waning Gibbous, 65% of the Moon is Illuminated
Mar 22
Waning Gibbous
Mar 23
Last Quarter
Mar 30
New
Apr 7
First Quarter
Apr 15
Full

Hourly Weather History & Observations

Time (EDT) Temp. Dew Point Humidity Pressure Visibility Wind Dir Wind Speed Gust Speed Precip Events Conditions
12:15 AM 42.8 °F 30.2 °F 61% 30.03 in 10.0 mi Calm Calm - N/A   Clear
12:35 AM 41.0 °F 30.2 °F 65% 30.02 in 10.0 mi Calm Calm - N/A   Clear
12:55 AM 39.2 °F 30.2 °F 70% 30.02 in 10.0 mi Calm Calm - N/A   Clear
1:15 AM 39.2 °F 30.2 °F 70% 30.01 in 10.0 mi Calm Calm - N/A   Clear
1:35 AM 39.2 °F 30.2 °F 70% 30.01 in 10.0 mi Calm Calm - N/A   Clear
1:55 AM 39.2 °F 30.2 °F 70% 30.01 in 10.0 mi Calm Calm - N/A   Clear
2:15 AM 39.2 °F 30.2 °F 70% 30.01 in 10.0 mi Calm Calm - N/A   Clear
2:35 AM 39.2 °F 30.2 °F 70% 30.01 in 10.0 mi Calm Calm - N/A   Clear
2:55 AM 39.2 °F 30.2 °F 70% 30.01 in 10.0 mi Calm Calm - N/A   Clear
3:15 AM 37.4 °F 30.2 °F 75% 30.01 in 10.0 mi Calm Calm - N/A   Clear
3:35 AM 37.4 °F 30.2 °F 75% 30.00 in 10.0 mi Calm Calm - N/A   Clear
3:55 AM 37.4 °F 30.2 °F 75% 30.00 in 10.0 mi Calm Calm - N/A   Clear
4:15 AM 35.6 °F 28.4 °F 75% 30.00 in 10.0 mi Calm Calm - N/A   Clear
4:35 AM 35.6 °F 28.4 °F 75% 30.00 in 10.0 mi Calm Calm - N/A   Clear
4:55 AM 35.6 °F 28.4 °F 75% 30.00 in 10.0 mi Calm Calm - N/A   Clear
5:15 AM 35.6 °F 28.4 °F 75% 30.00 in 10.0 mi Calm Calm - N/A   Clear
5:35 AM 35.6 °F 28.4 °F 75% 30.00 in 10.0 mi Calm Calm - N/A   Clear
5:55 AM 33.8 °F 28.4 °F 81% 30.00 in 10.0 mi Calm Calm - N/A   Clear
6:15 AM 33.8 °F 26.6 °F 75% 30.00 in 10.0 mi Calm Calm - N/A   Clear
6:35 AM 33.8 °F 26.6 °F 75% 30.00 in 10.0 mi Calm Calm - N/A   Clear
6:55 AM 35.6 °F 28.4 °F 75% 30.00 in 10.0 mi Calm Calm - N/A   Clear
7:15 AM 33.8 °F 26.6 °F 75% 30.01 in 10.0 mi Calm Calm - N/A   Clear
7:35 AM 33.8 °F 28.4 °F 81% 30.01 in 10.0 mi Calm Calm - N/A   Clear
7:55 AM 33.8 °F 28.4 °F 81% 30.02 in 10.0 mi Calm Calm - N/A   Clear
8:15 AM 33.8 °F 28.4 °F 81% 30.02 in 10.0 mi Calm Calm - N/A   Clear
8:35 AM 37.4 °F 30.2 °F 75% 30.03 in 10.0 mi Calm Calm - N/A   Clear
8:55 AM 39.2 °F 30.2 °F 70% 30.02 in 10.0 mi Calm Calm - N/A   Partly Cloudy
9:15 AM 41.0 °F 30.2 °F 65% 30.03 in 10.0 mi Calm Calm - N/A   Mostly Cloudy
9:35 AM 44.6 °F 30.2 °F 57% 30.03 in 10.0 mi Calm Calm - N/A   Mostly Cloudy
9:55 AM 46.4 °F 33.8 °F 62% 30.03 in 10.0 mi Calm Calm - N/A   Overcast
10:15 AM 48.2 °F 33.8 °F 58% 30.04 in 10.0 mi Calm Calm - N/A   Overcast
10:35 AM 51.8 °F 35.6 °F 54% 30.04 in 10.0 mi Calm Calm - N/A   Overcast
10:55 AM 55.4 °F 30.2 °F 38% 30.05 in 10.0 mi Calm Calm - N/A   Overcast
11:15 AM 57.2 °F 30.2 °F 36% 30.05 in 10.0 mi Calm Calm - N/A   Overcast
11:35 AM 57.2 °F 30.2 °F 36% 30.04 in 10.0 mi Calm Calm - N/A   Overcast
11:55 AM 60.8 °F 32.0 °F 34% 30.04 in 10.0 mi SW 9.2 mph - N/A   Mostly Cloudy
12:15 PM 60.8 °F 32.0 °F 34% 30.04 in 10.0 mi Calm Calm - N/A   Mostly Cloudy
12:35 PM 62.6 °F 32.0 °F 32% 30.04 in 10.0 mi SW 10.4 mph - N/A   Partly Cloudy
12:55 PM 62.6 °F 33.8 °F 34% 30.03 in 10.0 mi SW 12.7 mph - N/A   Clear
1:15 PM 62.6 °F 33.8 °F 34% 30.03 in 10.0 mi WSW 10.4 mph - N/A   Scattered Clouds
1:35 PM 62.6 °F 33.8 °F 34% 30.02 in 10.0 mi WSW 11.5 mph - N/A   Partly Cloudy
1:55 PM 62.6 °F 33.8 °F 34% 30.02 in 10.0 mi Calm Calm - N/A   Scattered Clouds
2:15 PM 62.6 °F 33.8 °F 34% 30.02 in 10.0 mi Calm Calm - N/A   Mostly Cloudy
2:35 PM 62.6 °F 35.6 °F 37% 30.01 in 10.0 mi Calm Calm - N/A   Mostly Cloudy
2:55 PM 62.6 °F 35.6 °F 37% 30.00 in 10.0 mi Calm Calm - N/A   Mostly Cloudy
3:15 PM 62.6 °F 35.6 °F 37% 30.00 in 10.0 mi Calm Calm - N/A   Scattered Clouds
3:35 PM 62.6 °F 37.4 °F 39% 29.99 in 10.0 mi SW 9.2 mph - N/A   Partly Cloudy
3:55 PM 62.6 °F 37.4 °F 39% 29.99 in 10.0 mi SW 6.9 mph - N/A   Clear
4:15 PM 62.6 °F 37.4 °F 39% 29.98 in 10.0 mi SW 6.9 mph 12.7 mph N/A   Clear
4:35 PM 64.4 °F 37.4 °F 37% 29.98 in 10.0 mi WSW 12.7 mph - N/A   Partly Cloudy
4:55 PM 66.2 °F 39.2 °F 37% 29.98 in 10.0 mi SW 9.2 mph - N/A   Scattered Clouds
5:15 PM 64.4 °F 37.4 °F 37% 29.97 in 10.0 mi WSW 8.1 mph - N/A   Scattered Clouds
5:35 PM 62.6 °F 37.4 °F 39% 29.97 in 10.0 mi WNW 5.8 mph - N/A   Mostly Cloudy
5:55 PM 64.4 °F 37.4 °F 37% 29.98 in 10.0 mi West 10.4 mph - N/A   Mostly Cloudy
6:15 PM 64.4 °F 37.4 °F 37% 29.98 in 10.0 mi WSW 9.2 mph - N/A   Partly Cloudy
6:35 PM 64.4 °F 37.4 °F 37% 29.99 in 10.0 mi West 10.4 mph - N/A   Clear
6:55 PM 62.6 °F 37.4 °F 39% 30.00 in 10.0 mi WSW 6.9 mph - N/A   Clear
7:15 PM 62.6 °F 37.4 °F 39% 30.00 in 10.0 mi Calm Calm - N/A   Clear
7:35 PM 60.8 °F 37.4 °F 42% 30.00 in 10.0 mi Calm Calm - N/A   Clear
7:55 PM 55.4 °F 39.2 °F 54% 29.99 in 10.0 mi Calm Calm - N/A   Clear
8:15 PM 51.8 °F 39.2 °F 62% 30.01 in 10.0 mi Calm Calm - N/A   Clear
8:35 PM 51.8 °F 39.2 °F 62% 30.01 in 10.0 mi Calm Calm - N/A   Clear
8:55 PM 48.2 °F 39.2 °F 71% 30.02 in 10.0 mi Calm Calm - N/A   Partly Cloudy
9:15 PM 48.2 °F 39.2 °F 71% 30.02 in 10.0 mi Calm Calm - N/A   Mostly Cloudy
9:35 PM 48.2 °F 41.0 °F 76% 30.03 in 10.0 mi Calm Calm - N/A   Mostly Cloudy
9:55 PM 48.2 °F 39.2 °F 71% 30.03 in 10.0 mi Calm Calm - N/A   Mostly Cloudy
10:15 PM 46.4 °F 39.2 °F 76% 30.03 in 10.0 mi Calm Calm - N/A   Mostly Cloudy
10:35 PM 46.4 °F 39.2 °F 76% 30.03 in 10.0 mi Calm Calm - N/A   Scattered Clouds
10:55 PM 44.6 °F 39.2 °F 81% 30.02 in 10.0 mi Calm Calm - N/A   Mostly Cloudy
11:15 PM 44.6 °F 39.2 °F 81% 30.02 in 10.0 mi Calm Calm - N/A   Scattered Clouds
11:35 PM 42.8 °F 37.4 °F 81% 30.02 in 10.0 mi Calm Calm - N/A   Clear
11:55 PM 42.8 °F 37.4 °F 81% 30.02 in 10.0 mi Calm Calm - N/A   Clear